Regional Weather Roundup
Issued by NWS Charleston, WV

Home | Current Version | Previous Version | Graphics & Text | Print | Product List | Glossary On
Versions: 1 2 3 4 5 6 7 8 9 10 11 12 13 14 15 16 17 18 19 20 21 22 23 24 25 26 27 28 29 30 31 32 33 34 35 36 37 38 39 40 41 42 43 44 45 46 47 48 49 50
000
ASUS41 KRLX 280510
RWRRLX
West Virginia Regional Weather Roundup
National Weather Service Charleston WV
100 AM EDT TUE JUL 28 2015

Note: "fair" indicates few or no clouds below 12,000 feet with no
significant weather and/or obstructions to visibility.

WVZ003-280600-
Northern Panhandle of West Virginia

CITY           SKY/WX    TMP DP  RH WIND       PRES   REMARKS
WHEELING       PTCLDY    70  65  84 E3        30.03F
$$

WVZ009-280600-
Northwest West Virginia

CITY           SKY/WX    TMP DP  RH WIND       PRES   REMARKS
PARKERSBURG    PTCLDY    71  70  96 CALM      30.04S FOG
$$

WVZ006-280600-
Western West Virginia

CITY           SKY/WX    TMP DP  RH WIND       PRES   REMARKS
HUNTINGTON     CLOUDY    74  73  97 CALM      30.01S
$$

WVZ015-280600-
West Central West Virginia

CITY           SKY/WX    TMP DP  RH WIND       PRES   REMARKS
CHARLESTON     MOCLDY    71  70  96 CALM      30.02S FOG
$$

WVZ022-031-280600-
North Central West Virginia

CITY           SKY/WX    TMP DP  RH WIND       PRES   REMARKS
CLARKSBURG     PTCLDY    69  68  96 CALM      30.03F
MORGANTOWN     CLEAR     74  68  81 CALM      30.05R
$$

WVZ025-035-042-045-280600-
Southern West Virginia

CITY           SKY/WX    TMP DP  RH WIND       PRES   REMARKS
BECKLEY        CLEAR     70  66  87 CALM      30.10F
LOGAN          RAIN      73  73 100 CALM      30.03R VSB 1/4
BLUEFIELD      CLEAR     73  66  78 CALM      30.12F
LEWISBURG      CLEAR     68  66  92 NE3       30.11S FOG
$$

WVZ047-280600-
Northern Mountains of West Virginia

CITY           SKY/WX    TMP DP  RH WIND       PRES   REMARKS
ELKINS         CLOUDY    71  67  87 CALM      30.08F
$$

WVZ052-280600-
Eastern Panhandle of West Virginia

CITY           SKY/WX    TMP DP  RH WIND       PRES   REMARKS
MARTINSBURG    CLEAR     71  70  96 CALM      30.03S FOG
PETERSBURG     PTCLDY   N/A N/A N/A CALM      30.05F HAZE
$$


USA.gov is the U.S. government's official web portal to all federal, state and local government web resources and services.